Weather History for Gulf Shores, AL

Change the Weather History Date:

Friday, February 22, 2013

  Actual Average (KPNS) Record (KPNS)
Temperature  
Mean Temperature 66 °F 56 °F  
Max Temperature 68 °F 65 °F 81 °F (2007)
Min Temperature 64 °F 47 °F 25 °F (1978)
Degree Days  
Heating Degree Days 0 9  
Month to date heating degree days 246  
Since 1 July heating degree days 1257  
Cooling Degree Days 1 0  
Month to date cooling degree days 0  
Year to date cooling degree days 6  
Growing Degree Days 16 (Base 50)    
Moisture  
Dew Point 63 °F    
Average Humidity 91    
Maximum Humidity 94    
Minimum Humidity 88    
Precipitation  
Precipitation 1.59 in 0.18 in 2.49 in (1987)
Month to date precipitation 3.95  
Year to date precipitation 8.58  
Snow  
Snow 0.00 in 0.00 in - ()
Month to date snowfall 0.0  
Since 1 July snowfall 0.0  
Snow Depth -    
Sea Level Pressure  
Sea Level Pressure 29.92 in    
Wind  
Wind Speed 6 mph (SE)    
Max Wind Speed 14 mph    
Max Gust Speed 23 mph    
Visibility 4 miles    
Events Rain , Thunderstorm    
T = Trace of Precipitation, MM = Missing Value Source: NWS Daily Summary

Daily Weather History Graph

Daily Weather History Graph

Search for Another Location

Airport:

Trip Planner

Search our weather history database for the weather conditions in past years. The results will help you decide how hot, cold, wet, or windy it might be!

Date:

Astronomy

Feb. 22, 2013 Rise Set
Actual Time 6:23 AM CST 5:44 PM CST
Civil Twilight 5:59 AM CST 6:09 PM CST
Nautical Twilight 5:31 AM CST 6:36 PM CST
Astronomical Twilight 5:03 AM CST 7:04 PM CST
Moon 3:03 PM CST (2/22) 4:00 AM CST (2/22)
Length of Visible Light 12h 09m
Length of Day
11h 20m
Waxing Gibbous, 90% of the Moon is Illuminated
Feb 22
Waxing Gibbous
Feb 25
Full
Mar 4
Last Quarter
Mar 11
New
Mar 19
First Quarter

Hourly Weather History & Observations

Time (CST) Temp. Dew Point Humidity Pressure Visibility Wind Dir Wind Speed Gust Speed Precip Events Conditions
12:15 AM 64.4 °F 62.6 °F 94% 29.93 in 7.0 mi SE 9.2 mph - N/A   Overcast
12:35 AM 66.2 °F 62.6 °F 88% 29.92 in 5.0 mi SE 8.1 mph - N/A   Overcast
12:55 AM 64.4 °F 62.6 °F 94% 29.92 in 5.0 mi SE 6.9 mph - N/A   Overcast
1:15 AM 64.4 °F 62.6 °F 94% 29.91 in 5.0 mi SE 6.9 mph - N/A   Overcast
1:35 AM 66.2 °F 62.6 °F 88% 29.91 in 5.0 mi SE 6.9 mph - N/A   Overcast
1:55 AM 64.4 °F 62.6 °F 94% 29.90 in 5.0 mi SE 8.1 mph - N/A   Overcast
2:15 AM 64.4 °F 62.6 °F 94% 29.90 in 5.0 mi SE 8.1 mph - N/A   Overcast
2:35 AM 66.2 °F 62.6 °F 88% 29.90 in 5.0 mi SE 5.8 mph - N/A   Overcast
2:55 AM 66.2 °F 62.6 °F 88% 29.89 in 5.0 mi SSE 6.9 mph - N/A   Overcast
3:15 AM 66.2 °F 62.6 °F 88% 29.89 in 4.0 mi SSE 8.1 mph - N/A   Overcast
3:35 AM 66.2 °F 62.6 °F 88% 29.88 in 4.0 mi SSE 9.2 mph - N/A   Overcast
3:55 AM 64.4 °F 62.6 °F 94% 29.88 in 3.0 mi SSE 8.1 mph - N/A   Overcast
4:15 AM 64.4 °F 62.6 °F 94% 29.89 in 2.5 mi SSE 6.9 mph - N/A   Overcast
4:35 AM 64.4 °F 62.6 °F 94% 29.89 in 2.5 mi South 3.5 mph - N/A   Overcast
4:55 AM 66.2 °F 62.6 °F 88% 29.89 in 2.5 mi SSE 5.8 mph - N/A Rain Light Rain
5:15 AM 64.4 °F 62.6 °F 94% 29.90 in 1.5 mi SSE 8.1 mph - N/A Rain , Thunderstorm Light Thunderstorms and Rain
5:35 AM 64.4 °F 62.6 °F 94% 29.92 in 4.0 mi SW 13.8 mph 23.0 mph 0.01 in Rain , Thunderstorm Light Thunderstorms and Rain
5:55 AM 64.4 °F 62.6 °F 94% 29.93 in 10.0 mi SW 9.2 mph - 0.02 in Rain , Thunderstorm Light Thunderstorms and Rain
6:15 AM 64.4 °F 62.6 °F 94% 29.93 in 7.0 mi SSW 6.9 mph - 0.02 in Rain , Thunderstorm Light Thunderstorms and Rain
6:35 AM 64.4 °F 62.6 °F 94% 29.94 in 5.0 mi South 5.8 mph - 0.03 in Rain , Thunderstorm Rain
6:55 AM 64.4 °F 62.6 °F 94% 29.94 in 5.0 mi Calm Calm - 0.05 in Rain , Thunderstorm Rain
7:35 AM 64.4 °F 62.6 °F 94% 29.95 in 4.0 mi Calm Calm - 0.02 in Rain Light Rain
7:55 AM 64.4 °F 62.6 °F 94% 29.96 in 4.0 mi Calm Calm - 0.03 in Rain , Thunderstorm Light Thunderstorms and Rain
8:15 AM 64.4 °F 62.6 °F 94% 29.95 in 5.0 mi North 3.5 mph - 0.01 in   Overcast
8:35 AM 64.4 °F 62.6 °F 94% 29.95 in 7.0 mi Calm Calm - 0.02 in   Mostly Cloudy
8:55 AM 66.2 °F 62.6 °F 88% 29.96 in 7.0 mi Calm Calm - 0.03 in   Scattered Clouds
9:15 AM 68.0 °F 64.4 °F 88% 29.95 in 7.0 mi North 4.6 mph - 0.01 in   Mostly Cloudy
9:35 AM 68.0 °F 64.4 °F 88% 29.96 in 10.0 mi North 4.6 mph - 0.01 in   Overcast
9:55 AM 68.0 °F 64.4 °F 88% 29.97 in 10.0 mi Calm Calm - 0.02 in Rain Light Rain
10:15 AM 68.0 °F 64.4 °F 88% 29.98 in 1.8 mi NNE 3.5 mph - N/A Rain Rain
10:35 AM 68.0 °F 64.4 °F 88% 29.98 in 5.0 mi NNE 3.5 mph - 0.01 in Rain , Thunderstorm Light Thunderstorms and Rain
10:55 AM 68.0 °F 64.4 °F 88% 29.97 in 1.8 mi NNE 4.6 mph - 0.01 in Rain , Thunderstorm Heavy Thunderstorms and Rain
11:15 AM 68.0 °F 64.4 °F 88% 29.97 in 1.0 mi East 5.8 mph - 0.01 in Rain Heavy Rain
11:35 AM 68.0 °F 64.4 °F 88% 29.97 in 7.0 mi NNE 3.5 mph - 0.01 in Rain , Thunderstorm Light Thunderstorms and Rain
11:55 AM 66.2 °F 64.4 °F 94% 29.95 in 5.0 mi NE 5.8 mph - 0.02 in Rain Rain
12:15 PM 66.2 °F 62.6 °F 88% 29.96 in 4.0 mi North 3.5 mph - 0.01 in Rain Heavy Rain
12:35 PM 66.2 °F 62.6 °F 88% 29.93 in 2.0 mi NE 12.7 mph 23.0 mph 0.03 in Rain Rain
1:15 PM 64.4 °F 62.6 °F 94% 29.93 in 1.0 mi NE 5.8 mph - 0.12 in Rain , Thunderstorm Heavy Thunderstorms and Rain
1:35 PM 66.2 °F 62.6 °F 88% 29.93 in 1.8 mi ENE 3.5 mph - 0.49 in Rain Rain
1:55 PM 68.0 °F 64.4 °F 88% 29.92 in 10.0 mi NE 3.5 mph - 0.89 in   Overcast
2:15 PM 68.0 °F 64.4 °F 88% 29.91 in 10.0 mi NE 4.6 mph - 0.27 in   Overcast
2:35 PM 68.0 °F 64.4 °F 88% 29.91 in 10.0 mi NE 3.5 mph - 0.34 in   Overcast
2:55 PM 68.0 °F 64.4 °F 88% 29.91 in 10.0 mi ENE 5.8 mph - 0.34 in Thunderstorm Overcast
3:15 PM 68.0 °F 64.4 °F 88% 29.90 in 10.0 mi Calm Calm - N/A   Overcast
3:35 PM 68.0 °F 64.4 °F 88% 29.90 in 3.0 mi East 6.9 mph - N/A Rain , Thunderstorm Heavy Thunderstorms and Rain
3:55 PM 68.0 °F 64.4 °F 88% 29.90 in 3.0 mi East 10.4 mph - 0.02 in Rain Light Rain
4:15 PM 66.2 °F 64.4 °F 94% 29.89 in 10.0 mi East 9.2 mph - 0.01 in   Light Drizzle
4:35 PM 64.4 °F 62.6 °F 94% 29.89 in 7.0 mi ESE 8.1 mph - 0.01 in   Overcast
4:55 PM 64.4 °F 62.6 °F 94% 29.90 in 2.5 mi ESE 6.9 mph - 0.01 in Rain Rain
5:15 PM 64.4 °F 62.6 °F 94% 29.90 in 2.5 mi ESE 5.8 mph - N/A Rain Rain
5:35 PM 64.4 °F 62.6 °F 94% 29.91 in 5.0 mi East 4.6 mph - 0.01 in   Light Drizzle
5:55 PM 64.4 °F 62.6 °F 94% 29.91 in 4.0 mi East 3.5 mph - 0.01 in Rain Rain
6:15 PM 64.4 °F 62.6 °F 94% 29.92 in 4.0 mi Calm Calm - N/A Rain Heavy Rain
6:35 PM 66.2 °F 62.6 °F 88% 29.92 in 3.0 mi Calm Calm - N/A Rain Rain
6:55 PM 64.4 °F 62.6 °F 94% 29.92 in 4.0 mi Calm Calm - N/A Rain Rain
7:15 PM 64.4 °F 62.6 °F 94% 29.92 in 2.5 mi Calm Calm - 0.01 in Rain Light Rain
7:35 PM 64.4 °F 62.6 °F 94% 29.91 in 2.5 mi Calm Calm - 0.01 in   Overcast
7:55 PM 64.4 °F 62.6 °F 94% 29.91 in 1.5 mi SE 3.5 mph - 0.01 in   Overcast
8:15 PM 66.2 °F 62.6 °F 88% 29.91 in 1.0 mi SSE 3.5 mph - N/A   Overcast
8:35 PM 66.2 °F 62.6 °F 88% 29.91 in 0.8 mi South 3.5 mph - 0.01 in   Overcast
8:55 PM 66.2 °F 64.4 °F 94% 29.91 in 0.8 mi South 4.6 mph - 0.04 in   Overcast
9:15 PM 68.0 °F 64.4 °F 88% 29.92 in 0.8 mi SSW 4.6 mph - 0.02 in   Overcast
9:35 PM 68.0 °F 64.4 °F 88% 29.92 in 1.0 mi SSW 4.6 mph - 0.03 in   Overcast
9:55 PM 68.0 °F 66.2 °F 94% 29.92 in 2.0 mi SSW 6.9 mph - 0.04 in   Overcast
10:15 PM 68.0 °F 66.2 °F 94% 29.91 in 2.0 mi SW 6.9 mph - N/A   Overcast
10:35 PM 68.0 °F 64.4 °F 88% 29.91 in 0.8 mi SSW 8.1 mph - 0.01 in   Overcast
10:55 PM 68.0 °F 64.4 °F 88% 29.91 in 0.8 mi SW 9.2 mph - 0.01 in   Overcast
11:15 PM 68.0 °F 64.4 °F 88% 29.90 in 1.8 mi SSW 10.4 mph - 0.01 in   Overcast
11:35 PM 68.0 °F 64.4 °F 88% 29.89 in 2.5 mi SSW 11.5 mph - 0.01 in   Overcast
11:55 PM 68.0 °F 64.4 °F 88% 29.90 in 4.0 mi SSW 11.5 mph - 0.01 in   Overcast